Location: Dana
(41.8364°N, 106.7042°W)
Time: 20:00:31
(UTC+00:00)

Tiros 1 despin weight - Pass Details

Date: 15 May 2026
Orbit: 555 x 591 km, 48.2° (Epoch: 1 June)

Event Time Altitude Azimuth Distance (km) Brightness Sun altitude
Rises 18:43:05 0° 290° (WNW) 2,730 ? 66.8°
Reaches altitude 10° 18:45:38 10° 276° (W) 1,832 ? 66.9°
Maximum altitude 18:49:00 24° 222° (SW) 1,174 ? 67.0°
Drops below altitude 10° 18:52:22 10° 168° (SSE) 1,828 ? 67.1°
Sets 18:54:55 0° 154° (SSE) 2,723 ? 67.1°
